| time (UTC) | temp F | wind direction | speed MPH | gust MPH | rain 1hr in | rain 24hr in | rain mn in | humidity % | barometer mb |
| 20260504223547 | 47 | 0 | 0.0 | 0.0 | 0.02 | 0.02 | 0.02 | 81 | 1013.6 |
| 20260504223104 | 47 | 0 | 0.0 | 0.0 | 0.02 | 0.02 | 0.02 | 80 | 1013.7 |
| 20260504222544 | 47 | 0 | 0.0 | 1.0 | 0.01 | 0.01 | 0.01 | 76 | 1013.8 |
| 20260504222044 | 48 | 0 | 0.0 | 1.0 | 0.01 | 0.01 | 0.01 | 73 | 1014.0 |
| 20260504221548 | 49 | 0 | 0.0 | 3.0 | 0.01 | 0.01 | 0.01 | 70 | 1014.0 |
| 20260504221045 | 50 | 0 | 0.0 | 3.0 | 0.00 | 0.00 | 0.00 | 65 | 1013.7 |
| 20260504220545 | 50 | 0 | 0.0 | 8.0 | 0.00 | 0.00 | 0.00 | 59 | 1013.8 |
| 20260504220048 | 50 | 0 | 0.0 | 8.0 | 0.00 | 0.00 | 0.00 | 53 | 1013.4 |
| 20260504215547 | 51 | 56 | 0.0 | 12.0 | 0.00 | 0.00 | 0.00 | 52 | 1012.9 |
| 20260504215043 | 51 | 0 | 0.0 | 14.0 | 0.00 | 0.00 | 0.00 | 51 | 1012.8 |
| 20260504214545 | 51 | 39 | 3.0 | 15.0 | 0.00 | 0.00 | 0.00 | 50 | 1012.5 |
| 20260504214045 | 52 | 35 | 8.0 | 15.0 | 0.00 | 0.00 | 0.00 | 48 | 1012.2 |
| 20260504213543 | 52 | 270 | 5.0 | 22.0 | 0.00 | 0.00 | 0.00 | 47 | 1012.3 |
| 20260504213055 | 53 | 26 | 5.0 | 22.0 | 0.00 | 0.00 | 0.00 | 46 | 1012.3 |
| 20260504212547 | 53 | 42 | 4.0 | 15.0 | 0.00 | 0.00 | 0.00 | 45 | 1012.4 |
| 20260504212045 | 54 | 56 | 8.0 | 19.0 | 0.00 | 0.00 | 0.00 | 43 | 1012.2 |
| 20260504211649 | 55 | 26 | 7.0 | 19.0 | 0.00 | 0.00 | 0.00 | 41 | 1012.3 |
| 20260504211044 | 56 | 28 | 10.0 | 17.0 | 0.00 | 0.00 | 0.00 | 39 | 1012.2 |
| 20260504210545 | 57 | 15 | 3.0 | 18.0 | 0.00 | 0.00 | 0.00 | 36 | 1012.2 |
| 20260504210052 | 58 | 18 | 9.0 | 18.0 | 0.00 | 0.00 | 0.00 | 34 | 1012.2 |
| 20260504205543 | 60 | 49 | 1.0 | 6.0 | 0.00 | 0.00 | 0.00 | 27 | 1012.3 |
| 20260504205044 | 60 | 0 | 1.0 | 6.0 | 0.00 | 0.00 | 0.00 | 29 | 1012.1 |
| 20260504204556 | 60 | 49 | 2.0 | 6.0 | 0.00 | 0.00 | 0.00 | 31 | 1012.1 |
| 20260504204045 | 60 | 0 | 2.0 | 6.0 | 0.00 | 0.00 | 0.00 | 31 | 1012.1 |
| 20260504203544 | 60 | 0 | 1.0 | 6.0 | 0.00 | 0.00 | 0.00 | 32 | 1012.3 |
| 20260504203107 | 59 | 0 | 0.0 | 5.0 | 0.00 | 0.00 | 0.00 | 33 | 1012.3 |
| 20260504202545 | 58 | 0 | 0.0 | 5.0 | 0.00 | 0.00 | 0.00 | 33 | 1012.5 |
| 20260504202045 | 58 | 327 | 0.0 | 6.0 | 0.00 | 0.00 | 0.00 | 33 | 1012.4 |
| 20260504201552 | 57 | 0 | 0.0 | 6.0 | 0.00 | 0.00 | 0.00 | 36 | 1012.6 |
| 20260504201044 | 57 | 278 | 1.0 | 8.0 | 0.00 | 0.00 | 0.00 | 36 | 1012.6 |
| 20260504200543 | 56 | 0 | 2.0 | 8.0 | 0.00 | 0.00 | 0.00 | 37 | 1012.8 |
| 20260504200053 | 56 | 0 | 1.0 | 10.0 | 0.00 | 0.00 | 0.00 | 37 | 1013.0 |
| 20260504195544 | 56 | 215 | 2.0 | 11.0 | 0.00 | 0.00 | 0.00 | 36 | 1013.0 |
| 20260504195044 | 56 | 202 | 4.0 | 16.0 | 0.00 | 0.00 | 0.00 | 36 | 1013.1 |
| 20260504194555 | 56 | 235 | 7.0 | 18.0 | 0.00 | 0.00 | 0.00 | 36 | 1013.0 |
| 20260504194044 | 57 | 182 | 4.0 | 18.0 | 0.00 | 0.00 | 0.00 | 33 | 1012.8 |
| 20260504193545 | 58 | 278 | 5.0 | 18.0 | 0.00 | 0.00 | 0.00 | 33 | 1012.9 |
| 20260504193051 | 58 | 0 | 1.0 | 16.0 | 0.00 | 0.00 | 0.00 | 33 | 1013.0 |
| 20260504192543 | 59 | 198 | 1.0 | 16.0 | 0.00 | 0.00 | 0.00 | 33 | 1013.0 |
| 20260504192045 | 59 | 194 | 4.0 | 16.0 | 0.00 | 0.00 | 0.00 | 32 | 1013.0 |
| 20260504191607 | 60 | 238 | 3.0 | 14.0 | 0.00 | 0.00 | 0.00 | 29 | 1013.1 |
| 20260504191044 | 61 | 179 | 3.0 | 14.0 | 0.00 | 0.00 | 0.00 | 28 | 1012.9 |
| 20260504190544 | 61 | 267 | 3.0 | 11.0 | 0.00 | 0.00 | 0.00 | 30 | 1012.9 |
| 20260504190105 | 61 | 250 | 1.0 | 9.0 | 0.00 | 0.00 | 0.00 | 31 | 1012.9 |
| 20260504185544 | 61 | 303 | 1.0 | 7.0 | 0.00 | 0.00 | 0.00 | 32 | 1013.0 |
| 20260504185043 | 60 | 263 | 3.0 | 9.0 | 0.00 | 0.00 | 0.00 | 31 | 1013.0 |
| 20260504184552 | 60 | 279 | 2.0 | 9.0 | 0.00 | 0.00 | 0.00 | 32 | 1013.1 |
| 20260504184043 | 61 | 228 | 2.0 | 8.0 | 0.00 | 0.00 | 0.00 | 32 | 1013.1 |
| 20260504183546 | 61 | 275 | 1.0 | 7.0 | 0.00 | 0.00 | 0.00 | 33 | 1013.1 |
| 20260504183048 | 61 | 201 | 0.0 | 6.0 | 0.00 | 0.00 | 0.00 | 34 | 1013.1 |
| 20260504182545 | 60 | 0 | 2.0 | 6.0 | 0.00 | 0.00 | 0.00 | 32 | 1013.1 |
| 20260504182043 | 60 | 0 | 1.0 | 9.0 | 0.00 | 0.00 | 0.00 | 32 | 1013.2 |
| 20260504181553 | 60 | 0 | 1.0 | 9.0 | 0.00 | 0.00 | 0.00 | 32 | 1013.3 |
| 20260504181045 | 60 | 0 | 1.0 | 6.0 | 0.00 | 0.00 | 0.00 | 32 | 1013.4 |
| 20260504180544 | 61 | 318 | 0.0 | 8.0 | 0.00 | 0.00 | 0.00 | 32 | 1013.4 |
| 20260504180054 | 60 | 350 | 0.0 | 8.0 | 0.00 | 0.00 | 0.00 | 33 | 1013.4 |
| 20260504175544 | 60 | 0 | 1.0 | 7.0 | 0.00 | 0.00 | 0.00 | 34 | 1013.6 |
| 20260504175046 | 59 | 355 | 1.0 | 7.0 | 0.00 | 0.00 | 0.00 | 34 | 1013.6 |
| 20260504174549 | 59 | 240 | 2.0 | 12.0 | 0.00 | 0.00 | 0.00 | 34 | 1013.8 |
| 20260504174046 | 58 | 255 | 2.0 | 12.0 | 0.00 | 0.00 | 0.00 | 34 | 1013.8 |
| 20260504173544 | 58 | 0 | 0.0 | 8.0 | 0.00 | 0.00 | 0.00 | 35 | 1013.9 |
| 20260504173057 | 58 | 225 | 2.0 | 8.0 | 0.00 | 0.00 | 0.00 | 34 | 1014.1 |
| 20260504172544 | 57 | 254 | 0.0 | 6.0 | 0.00 | 0.00 | 0.00 | 37 | 1014.1 |
| 20260504172044 | 57 | 0 | 0.0 | 6.0 | 0.00 | 0.00 | 0.00 | 37 | 1014.1 |
| 20260504171554 | 57 | 360 | 0.0 | 10.0 | 0.00 | 0.00 | 0.00 | 36 | 1014.1 |
| 20260504171043 | 56 | 0 | 1.0 | 10.0 | 0.00 | 0.00 | 0.00 | 37 | 1014.1 |
| 20260504170545 | 56 | 0 | 0.0 | 1.0 | 0.00 | 0.00 | 0.00 | 38 | 1014.2 |
| 20260504151047 | 52 | 360 | 1.0 | 7.0 | 0.00 | 0.00 | 0.00 | 42 | 1014.3 |
| 20260504150548 | 51 | 216 | 1.0 | 7.0 | 0.00 | 0.00 | 0.00 | 42 | 1014.4 |
| 20260504141044 | 51 | 0 | 4.0 | 12.0 | 0.00 | 0.00 | 0.00 | 40 | 1014.4 |
| 20260504140548 | 51 | 0 | 3.0 | 12.0 | 0.00 | 0.00 | 0.00 | 39 | 1014.3 |
| 20260504130548 | 45 | 0 | 0.0 | 1.0 | 0.00 | 0.00 | 0.00 | 42 | 1014.3 |
| 20260504110544 | 46 | 290 | 0.0 | 4.0 | 0.00 | 0.00 | 0.00 | 33 | 1013.8 |
| 20260504100544 | 45 | 0 | 1.0 | 4.0 | 0.00 | 0.00 | 0.00 | 38 | 1014.0 |
| 20260504081553 | 45 | 285 | 1.0 | 3.0 | 0.00 | 0.00 | 0.00 | 41 | 1014.9 |
| 20260504081047 | 45 | 285 | 1.0 | 4.0 | 0.00 | 0.00 | 0.00 | 42 | 1014.9 |
| 20260504080545 | 45 | 285 | 1.0 | 4.0 | 0.00 | 0.00 | 0.00 | 42 | 1015.1 |
| 20260504050544 | 47 | 0 | 0.0 | 1.0 | 0.00 | 0.00 | 0.00 | 41 | 1016.2 |
| 20260504045543 | 48 | 0 | 0.0 | 3.0 | 0.00 | 0.00 | 0.00 | 41 | 1016.3 |
| 20260504045043 | 48 | 0 | 0.0 | 3.0 | 0.00 | 0.00 | 0.00 | 41 | 1016.3 |
| 20260504044547 | 48 | 0 | 0.0 | 4.0 | 0.00 | 0.00 | 0.00 | 40 | 1016.3 |
| 20260504044043 | 48 | 263 | 0.0 | 4.0 | 0.00 | 0.00 | 0.00 | 40 | 1016.4 |
| 20260504043547 | 48 | 259 | 0.0 | 3.0 | 0.00 | 0.00 | 0.00 | 41 | 1016.4 |
| 20260504043058 | 49 | 0 | 0.0 | 2.0 | 0.00 | 0.00 | 0.00 | 40 | 1016.4 |
| 20260504042545 | 48 | 0 | 0.0 | 2.0 | 0.00 | 0.00 | 0.00 | 41 | 1016.3 |
| 20260504042048 | 48 | 0 | 0.0 | 2.0 | 0.00 | 0.00 | 0.00 | 41 | 1016.4 |
| 20260504041552 | 48 | 0 | 0.0 | 1.0 | 0.00 | 0.00 | 0.00 | 41 | 1016.4 |
| 20260504041047 | 49 | 0 | 0.0 | 1.0 | 0.00 | 0.00 | 0.00 | 41 | 1016.4 |
| 20260504040544 | 49 | 0 | 0.0 | 1.0 | 0.00 | 0.00 | 0.00 | 41 | 1016.5 |
| 20260504040120 | 49 | 0 | 0.0 | 1.0 | 0.00 | 0.00 | 0.00 | 41 | 1016.5 |
| 20260504035547 | 50 | 0 | 0.0 | 2.0 | 0.00 | 0.00 | 0.00 | 41 | 1016.6 |
| 20260504035045 | 50 | 0 | 0.0 | 2.0 | 0.00 | 0.00 | 0.00 | 40 | 1016.6 |
| 20260504034550 | 50 | 0 | 0.0 | 1.0 | 0.00 | 0.00 | 0.00 | 40 | 1016.7 |
| 20260504034043 | 50 | 0 | 0.0 | 1.0 | 0.00 | 0.00 | 0.00 | 40 | 1016.7 |
| 20260504033545 | 50 | 0 | 0.0 | 1.0 | 0.00 | 0.00 | 0.00 | 40 | 1016.8 |
| 20260504033051 | 50 | 0 | 0.0 | 2.0 | 0.00 | 0.00 | 0.00 | 40 | 1016.8 |
| 20260504032547 | 51 | 0 | 0.0 | 3.0 | 0.00 | 0.00 | 0.00 | 40 | 1016.8 |
| 20260504032046 | 51 | 0 | 0.0 | 4.0 | 0.00 | 0.00 | 0.00 | 40 | 1016.9 |
| 20260504031606 | 51 | 0 | 0.0 | 4.0 | 0.00 | 0.00 | 0.00 | 40 | 1016.9 |
| 20260504031046 | 51 | 0 | 0.0 | 3.0 | 0.00 | 0.00 | 0.00 | 40 | 1016.8 |
| 20260504030545 | 51 | 0 | 0.0 | 3.0 | 0.00 | 0.00 | 0.00 | 40 | 1016.8 |
| 20260504030051 | 51 | 0 | 0.0 | 2.0 | 0.00 | 0.00 | 0.00 | 39 | 1016.7 |
| 20260504025545 | 51 | 0 | 0.0 | 4.0 | 0.00 | 0.00 | 0.00 | 39 | 1016.6 |
| 20260504025045 | 52 | 0 | 0.0 | 4.0 | 0.00 | 0.00 | 0.00 | 39 | 1016.6 |
| 20260504024553 | 52 | 0 | 0.0 | 4.0 | 0.00 | 0.00 | 0.00 | 38 | 1016.6 |
| 20260504024045 | 52 | 0 | 0.0 | 1.0 | 0.00 | 0.00 | 0.00 | 38 | 1016.6 |
| 20260504023545 | 52 | 0 | 0.0 | 3.0 | 0.00 | 0.00 | 0.00 | 37 | 1016.6 |
| 20260504023049 | 52 | 0 | 0.0 | 3.0 | 0.00 | 0.00 | 0.00 | 37 | 1016.6 |
| 20260504022544 | 53 | 0 | 0.0 | 4.0 | 0.00 | 0.00 | 0.00 | 36 | 1016.6 |
| 20260504022045 | 53 | 0 | 0.0 | 4.0 | 0.00 | 0.00 | 0.00 | 36 | 1016.5 |
| 20260504021557 | 53 | 261 | 0.0 | 3.0 | 0.00 | 0.00 | 0.00 | 36 | 1016.6 |
| 20260504021044 | 53 | 248 | 0.0 | 3.0 | 0.00 | 0.00 | 0.00 | 36 | 1016.6 |
| 20260504020544 | 54 | 250 | 0.0 | 3.0 | 0.00 | 0.00 | 0.00 | 35 | 1016.5 |
| 20260504020107 | 54 | 241 | 0.0 | 0.0 | 0.00 | 0.00 | 0.00 | 34 | 1016.6 |
| 20260504015547 | 54 | 0 | 0.0 | 0.0 | 0.00 | 0.00 | 0.00 | 34 | 1016.5 |
| 20260504015045 | 55 | 0 | 0.0 | 0.0 | 0.00 | 0.00 | 0.00 | 33 | 1016.5 |
| 20260504014552 | 55 | 0 | 0.0 | 0.0 | 0.00 | 0.00 | 0.00 | 33 | 1016.5 |
| 20260504014045 | 56 | 0 | 0.0 | 0.0 | 0.00 | 0.00 | 0.00 | 32 | 1016.5 |
| 20260504013547 | 56 | 0 | 0.0 | 0.0 | 0.00 | 0.00 | 0.00 | 32 | 1016.4 |
| 20260504013048 | 56 | 0 | 0.0 | 0.0 | 0.00 | 0.00 | 0.00 | 32 | 1016.4 |
| 20260504012549 | 56 | 0 | 0.0 | 3.0 | 0.00 | 0.00 | 0.00 | 32 | 1016.4 |
| 20260504012045 | 56 | 0 | 0.0 | 3.0 | 0.00 | 0.00 | 0.00 | 32 | 1016.3 |
| 20260504011552 | 57 | 0 | 0.0 | 3.0 | 0.00 | 0.00 | 0.00 | 31 | 1016.4 |
| 20260504011044 | 57 | 0 | 0.0 | 4.0 | 0.00 | 0.00 | 0.00 | 31 | 1016.4 |
| 20260504010545 | 57 | 0 | 0.0 | 6.0 | 0.00 | 0.00 | 0.00 | 31 | 1016.4 |
| 20260504010055 | 57 | 281 | 1.0 | 6.0 | 0.00 | 0.00 | 0.00 | 30 | 1016.3 |
| 20260504005546 | 57 | 309 | 1.0 | 6.0 | 0.00 | 0.00 | 0.00 | 31 | 1016.3 |
| 20260504005049 | 58 | 0 | 0.0 | 10.0 | 0.00 | 0.00 | 0.00 | 30 | 1016.4 |
| 20260504004553 | 58 | 0 | 1.0 | 10.0 | 0.00 | 0.00 | 0.00 | 30 | 1016.4 |
| 20260504004046 | 58 | 333 | 0.0 | 5.0 | 0.00 | 0.00 | 0.00 | 30 | 1016.4 |
| 20260504003546 | 58 | 326 | 0.0 | 8.0 | 0.00 | 0.00 | 0.00 | 29 | 1016.5 |
| 20260504003053 | 59 | 0 | 1.0 | 8.0 | 0.00 | 0.00 | 0.00 | 29 | 1016.5 |
| 20260504002547 | 59 | 279 | 1.0 | 7.0 | 0.00 | 0.00 | 0.00 | 29 | 1016.4 |
| 20260504002044 | 59 | 0 | 0.0 | 7.0 | 0.00 | 0.00 | 0.00 | 29 | 1016.7 |
| 20260504001555 | 58 | 229 | 0.0 | 9.0 | 0.00 | 0.00 | 0.00 | 30 | 1016.5 |
| 20260504001046 | 58 | 351 | 1.0 | 9.0 | 0.00 | 0.00 | 0.00 | 31 | 1016.5 |
| 20260504000544 | 58 | 11 | 0.0 | 8.0 | 0.00 | 0.00 | 0.00 | 31 | 1016.6 |
| 20260504000053 | 58 | 0 | 0.0 | 10.0 | 0.00 | 0.00 | 0.00 | 31 | 1016.6 |
| 20260503235545 | 58 | 0 | 1.0 | 10.0 | 0.00 | 0.00 | 0.00 | 31 | 1016.6 |
| 20260503235047 | 58 | 221 | 1.0 | 10.0 | 0.00 | 0.00 | 0.00 | 30 | 1016.9 |
| 20260503234622 | 58 | 275 | 4.0 | 10.0 | 0.00 | 0.00 | 0.00 | 29 | 1016.8 |
| 20260503234051 | 57 | 0 | 1.0 | 10.0 | 0.00 | 0.00 | 0.00 | 29 | 1016.9 |
| 20260503233547 | 57 | 0 | 2.0 | 15.0 | 0.00 | 0.00 | 0.00 | 29 | 1016.8 |
| 20260503233057 | 57 | 0 | 4.0 | 15.0 | 0.00 | 0.00 | 0.00 | 29 | 1016.8 |
| 20260503232543 | 57 | 248 | 3.0 | 16.0 | 0.00 | 0.00 | 0.00 | 29 | 1016.8 |
| 20260503232045 | 58 | 281 | 3.0 | 16.0 | 0.00 | 0.00 | 0.00 | 29 | 1016.9 |
| 20260503231552 | 58 | 282 | 2.0 | 12.0 | 0.00 | 0.00 | 0.00 | 29 | 1016.9 |
| 20260503231047 | 59 | 257 | 4.0 | 15.0 | 0.00 | 0.00 | 0.00 | 28 | 1016.6 |
| 20260503230550 | 60 | 296 | 4.0 | 15.0 | 0.00 | 0.00 | 0.00 | 26 | 1016.8 |
| 20260503230051 | 61 | 223 | 0.0 | 5.0 | 0.00 | 0.00 | 0.00 | 27 | 1016.4 |
| 20260503225544 | 61 | 221 | 1.0 | 5.0 | 0.00 | 0.00 | 0.00 | 26 | 1016.3 |
| 20260503225048 | 61 | 182 | 1.0 | 7.0 | 0.00 | 0.00 | 0.00 | 26 | 1016.1 |
| 20260503224554 | 60 | 0 | 3.0 | 9.0 | 0.00 | 0.00 | 0.00 | 28 | 1016.1 |
| 20260503224045 | 59 | 61 | 2.0 | 12.0 | 0.00 | 0.00 | 0.00 | 30 | 1016.4 |